Regional Weather Roundup
Issued by NWS

Home | Current Version | Previous Version | Graphics & Text | Print | Product List | Glossary On
Versions: 1 2 3 4 5 6 7 8 9 10 11 12 13 14 15 16 17 18 19 20 21 22 23 24 25 26 27 28 29 30 31 32 33 34 35 36 37 38 39 40 41 42 43 44 45 46 47 48 49 50
000
ASUS43 KBIS 021410
RWRND

NORTH DAKOTA REGIONAL WEATHER ROUNDUP
NATIONAL WEATHER SERVICE BISMARCK ND
900 AM CDT THU JUL 02 2015

NOTE: "FAIR" INDICATES FEW OR NO CLOUDS BELOW 12,000 FEET WITH NO
SIGNIFICANT WEATHER AND/OR OBSTRUCTIONS TO VISIBILITY.


NDZ001>003-009>011-017-021500-
NORTHWEST NORTH DAKOTA

CITY           SKY/WX    TMP DP  RH WIND       PRES   REMARKS
WILLISTON      PTSUNNY   61  55  81 CALM      30.04R
MINOT          PTSUNNY   66  61  84 W9        29.97S HAZE
MINOT AFB      SUNNY     68  68 100 NW9       29.97R FOG
$$

NDZ018>021-031>035-040>046-021500-
SOUTHWEST NORTH DAKOTA

CITY           SKY/WX    TMP DP  RH WIND       PRES   REMARKS
BISMARCK       MOSUNNY   68  62  81 CALM      29.99R HAZE
DICKINSON      SUNNY     64  58  80 NW15      30.03R
GARRISON         N/A     65  62  90 NW9       29.98S
HETTINGER ARPT SUNNY     65  59  81 NW12      30.06R
$$

NDZ004>008-012>016-024-026-027-054-021500-
NORTHEAST NORTH DAKOTA

CITY           SKY/WX    TMP DP  RH WIND       PRES   REMARKS
GRAND FORKS    SUNNY     64  57  78 S8        29.95S
GRND FRKS AFB  SUNNY     65  59  81 S5        29.95F
DEVILS LAKE    CLOUDY    68  61  77 CALM      29.94S
$$

NDZ022-023-025-028>030-036>039-047>053-021500-
SOUTHEAST NORTH DAKOTA

CITY           SKY/WX    TMP DP  RH WIND       PRES   REMARKS
FARGO          SUNNY     65  55  70 S12       29.99S
JAMESTOWN      PTSUNNY   65  60  84 S8        29.97R
$$



USA.gov is the U.S. government's official web portal to all federal, state and local government web resources and services.